EW9309 Weather Reports


time (UTC)temp
C
wind
direction
speed
KPH
gust
KPH
rain 1hr
cm
rain 24hr
cm
rain mn
cm
humidity
%
barometer
mb
20260506051010 19 0 0.0 1.6 0.00 0.00 0.00 32 1012.5
20260506050510 19 0 0.0 3.2 0.00 0.00 0.00 32 1012.5
20260506045009 20 360 0.0 3.2 0.00 0.00 0.00 31 1012.3
20260506044538 20 0 0.0 3.2 0.00 0.00 0.00 31 1012.3
20260506044010 20 360 0.0 3.2 0.00 0.00 0.00 31 1012.3
20260506043513 20 0 0.0 4.8 0.00 0.00 0.00 31 1012.3
20260506043028 20 360 0.0 6.4 0.00 0.00 0.00 30 1012.4
20260506042512 20 360 0.0 6.4 0.00 0.00 0.00 30 1012.3
20260506042010 20 360 1.6 8.0 0.00 0.00 0.00 30 1012.2
20260506041541 20 0 1.6 8.0 0.00 0.00 0.00 30 1012.1
20260506041015 20 0 1.6 4.8 0.00 0.00 0.00 30 1012.2
20260506040516 20 0 0.0 4.8 0.00 0.00 0.00 29 1012.2
20260506040033 20 0 0.0 6.4 0.00 0.00 0.00 29 1012.1
20260506035509 20 360 0.0 6.4 0.00 0.00 0.00 29 1011.9
20260506035010 21 360 1.6 8.0 0.00 0.00 0.00 29 1011.8
20260506034532 21 360 0.0 9.7 0.00 0.00 0.00 29 1011.9
20260506034011 21 360 1.6 9.7 0.00 0.00 0.00 28 1011.9
20260506033511 21 360 1.6 4.8 0.00 0.00 0.00 29 1011.8
20260506033027 21 360 0.0 6.4 0.00 0.00 0.00 29 1011.7
20260506032508 21 0 1.6 6.4 0.00 0.00 0.00 29 1011.7
20260506032010 21 360 3.2 6.4 0.00 0.00 0.00 29 1011.6
20260506031530 21 360 1.6 8.0 0.00 0.00 0.00 29 1011.6
20260506031011 21 360 1.6 11.3 0.00 0.00 0.00 28 1011.6
20260506030509 21 246 3.2 11.3 0.00 0.00 0.00 28 1011.4
20260506030030 21 248 3.2 11.3 0.00 0.00 0.00 28 1011.4
20260506025510 21 250 1.6 11.3 0.00 0.00 0.00 27 1011.3
20260506025008 21 0 4.8 11.3 0.00 0.00 0.00 27 1011.2
20260506024531 21 257 3.2 11.3 0.00 0.00 0.00 27 1011.3
20260506024016 22 245 1.6 11.3 0.00 0.00 0.00 27 1011.1
20260506023512 22 223 1.6 11.3 0.00 0.00 0.00 27 1011.0
20260506023030 22 0 3.2 12.9 0.00 0.00 0.00 26 1010.9
20260506022513 22 246 3.2 14.5 0.00 0.00 0.00 26 1010.9
20260506022009 22 271 4.8 16.1 0.00 0.00 0.00 26 1010.7
20260506021529 22 246 6.4 16.1 0.00 0.00 0.00 25 1010.7
20260506021016 22 248 3.2 14.5 0.00 0.00 0.00 25 1010.7
20260506020515 22 250 4.8 14.5 0.00 0.00 0.00 25 1010.6
20260506020030 23 282 4.8 14.5 0.00 0.00 0.00 24 1010.5
20260506015511 23 249 3.2 14.5 0.00 0.00 0.00 25 1010.5
20260506015008 23 221 4.8 16.1 0.00 0.00 0.00 25 1010.3
20260506014529 23 242 4.8 19.3 0.00 0.00 0.00 24 1010.3
20260506014009 23 271 3.2 19.3 0.00 0.00 0.00 24 1010.3
20260506013510 23 234 6.4 16.1 0.00 0.00 0.00 24 1010.2
20260506013033 23 244 3.2 17.7 0.00 0.00 0.00 24 1010.3
20260506012510 23 259 8.0 19.3 0.00 0.00 0.00 24 1010.2
20260506012013 24 263 6.4 19.3 0.00 0.00 0.00 24 1010.2
20260506011539 24 205 4.8 19.3 0.00 0.00 0.00 24 1010.1
20260506011015 24 265 4.8 17.7 0.00 0.00 0.00 24 1010.2
20260506010511 24 256 4.8 19.3 0.00 0.00 0.00 25 1010.2
20260506010027 24 266 4.8 25.7 0.00 0.00 0.00 24 1010.0
20260506005508 25 201 9.7 25.7 0.00 0.00 0.00 24 1010.0
20260506005010 25 261 4.8 19.3 0.00 0.00 0.00 24 1010.0
20260506004540 25 211 4.8 24.1 0.00 0.00 0.00 24 1009.9
20260506004012 25 259 6.4 24.1 0.00 0.00 0.00 24 1009.9
20260506003513 25 286 8.0 22.5 0.00 0.00 0.00 24 1009.8
20260506003030 25 279 8.0 22.5 0.00 0.00 0.00 24 1009.8
20260506002511 25 220 6.4 16.1 0.00 0.00 0.00 24 1009.7
20260506002011 25 236 4.8 20.9 0.00 0.00 0.00 24 1009.8
20260506001531 25 245 9.7 20.9 0.00 0.00 0.00 23 1009.7
20260506001012 25 235 8.0 20.9 0.00 0.00 0.00 24 1009.7
20260506000516 25 259 8.0 24.1 0.00 0.00 0.00 24 1009.7
20260506000029 25 242 8.0 24.1 0.00 0.00 0.00 24 1009.6
20260505235510 25 244 6.4 22.5 0.00 0.00 0.00 24 1009.6
20260505235012 25 241 8.0 29.0 0.00 0.00 0.00 24 1009.6
20260505234530 25 260 9.7 29.0 0.00 0.00 0.00 23 1009.6
20260505234014 25 227 8.0 29.0 0.00 0.00 0.00 24 1009.6
20260505233510 25 243 3.2 29.0 0.00 0.00 0.00 25 1009.5
20260505233033 25 196 8.0 29.0 0.00 0.00 0.00 25 1009.5
20260505232517 25 213 3.2 17.7 0.00 0.00 0.00 26 1009.5
20260505232010 25 262 4.8 19.3 0.00 0.00 0.00 26 1009.6
20260505231537 25 230 9.7 19.3 0.00 0.00 0.00 24 1009.7
20260505231008 26 237 6.4 16.1 0.00 0.00 0.00 24 1009.6
20260505230509 25 240 4.8 22.5 0.00 0.00 0.00 25 1009.7
20260505230028 26 263 8.0 22.5 0.00 0.00 0.00 24 1009.7
20260505225513 26 175 9.7 19.3 0.00 0.00 0.00 25 1009.8
20260505225010 25 225 4.8 29.0 0.00 0.00 0.00 25 1009.7
20260505224528 25 242 6.4 29.0 0.00 0.00 0.00 25 1009.8
20260505224012 25 218 9.7 20.9 0.00 0.00 0.00 24 1009.9
20260505223511 26 192 8.0 20.9 0.00 0.00 0.00 24 1009.9
20260505223028 26 200 4.8 19.3 0.00 0.00 0.00 26 1009.9
20260505222513 25 270 9.7 19.3 0.00 0.00 0.00 26 1010.0
20260505222012 25 219 6.4 19.3 0.00 0.00 0.00 25 1010.1
20260505221528 25 228 6.4 17.7 0.00 0.00 0.00 25 1010.3
20260505221009 26 219 6.4 17.7 0.00 0.00 0.00 26 1010.3
20260505220507 25 256 3.2 17.7 0.00 0.00 0.00 27 1010.4
20260505220046 25 283 8.0 27.4 0.00 0.00 0.00 26 1010.5
20260505215514 26 235 6.4 27.4 0.00 0.00 0.00 26 1010.6
20260505215009 26 232 9.7 27.4 0.00 0.00 0.00 27 1010.4
20260505214532 25 225 8.0 17.7 0.00 0.00 0.00 26 1010.4
20260505214010 25 274 8.0 24.1 0.00 0.00 0.00 27 1010.3
20260505213510 25 246 6.4 24.1 0.00 0.00 0.00 28 1010.5
20260505213031 25 286 4.8 24.1 0.00 0.00 0.00 27 1010.5
20260505212512 26 250 9.7 25.7 0.00 0.00 0.00 26 1010.7
20260505212014 26 235 8.0 25.7 0.00 0.00 0.00 26 1010.7
20260505211537 25 286 11.3 25.7 0.00 0.00 0.00 27 1010.8
20260505211011 26 273 4.8 20.9 0.00 0.00 0.00 26 1010.8
20260505210510 26 230 6.4 19.3 0.00 0.00 0.00 28 1010.9
20260505210033 25 265 8.0 19.3 0.00 0.00 0.00 27 1010.9
20260505205516 25 233 8.0 22.5 0.00 0.00 0.00 27 1010.9
20260505205012 25 263 11.3 22.5 0.00 0.00 0.00 28 1011.1
20260505204527 25 253 6.4 22.5 0.00 0.00 0.00 28 1010.9
20260505204010 25 279 6.4 20.9 0.00 0.00 0.00 28 1010.9
20260505203514 26 243 6.4 20.9 0.00 0.00 0.00 26 1011.1
20260505203028 26 262 4.8 20.9 0.00 0.00 0.00 27 1011.0
20260505202510 26 234 6.4 27.4 0.00 0.00 0.00 27 1011.0
20260505202012 26 163 8.0 27.4 0.00 0.00 0.00 26 1011.1
20260505201530 26 258 8.0 22.5 0.00 0.00 0.00 27 1011.1
20260505201010 26 221 6.4 19.3 0.00 0.00 0.00 28 1011.3
20260505200510 26 275 6.4 19.3 0.00 0.00 0.00 28 1011.2
20260505200028 26 273 1.6 22.5 0.00 0.00 0.00 28 1011.3
20260505195512 26 268 4.8 22.5 0.00 0.00 0.00 29 1011.3
20260505195011 26 272 6.4 22.5 0.00 0.00 0.00 30 1011.3
20260505194529 25 269 4.8 22.5 0.00 0.00 0.00 28 1011.4
20260505194014 25 266 9.7 22.5 0.00 0.00 0.00 30 1011.5
20260505193510 26 259 11.3 22.5 0.00 0.00 0.00 29 1011.4
20260505193035 26 249 4.8 19.3 0.00 0.00 0.00 29 1011.5
20260505192511 26 0 3.2 19.3 0.00 0.00 0.00 31 1011.5
20260505192010 25 234 4.8 25.7 0.00 0.00 0.00 30 1011.6
20260505191529 25 152 6.4 27.4 0.00 0.00 0.00 31 1011.7
20260505191010 25 281 6.4 27.4 0.00 0.00 0.00 31 1011.7
20260505190514 25 237 8.0 25.7 0.00 0.00 0.00 31 1011.6
20260505190028 25 228 6.4 20.9 0.00 0.00 0.00 32 1011.6
20260505185509 25 286 6.4 22.5 0.00 0.00 0.00 32 1011.7
20260505185012 25 240 4.8 22.5 0.00 0.00 0.00 33 1011.6
20260505184531 24 152 6.4 22.5 0.00 0.00 0.00 33 1011.7
20260505184011 24 227 4.8 20.9 0.00 0.00 0.00 36 1011.8
20260505183511 23 223 8.0 22.5 0.00 0.00 0.00 34 1011.8
20260505183036 23 257 8.0 22.5 0.00 0.00 0.00 35 1011.8
20260505182511 23 274 6.4 25.7 0.00 0.00 0.00 36 1011.8
20260505182015 23 219 8.0 25.7 0.00 0.00 0.00 37 1011.9
20260505181529 23 240 6.4 19.3 0.00 0.00 0.00 39 1011.9
20260505181042 22 230 4.8 24.1 0.00 0.00 0.00 39 1011.8
20260505180510 23 273 9.7 24.1 0.00 0.00 0.00 39 1011.9
20260505180029 23 270 8.0 17.7 0.00 0.00 0.00 40 1011.9
20260505175513 23 263 3.2 12.9 0.00 0.00 0.00 42 1011.9
20260505175011 23 280 3.2 12.9 0.00 0.00 0.00 41 1011.9
20260505174528 22 173 1.6 6.4 0.00 0.00 0.00 41 1011.9
20260505174010 22 290 3.2 9.7 0.00 0.00 0.00 40 1011.9
20260505173511 22 267 1.6 14.5 0.00 0.00 0.00 42 1011.8
20260505173030 22 0 3.2 14.5 0.00 0.00 0.00 41 1011.9
20260505172516 22 295 6.4 14.5 0.00 0.00 0.00 42 1011.8
20260505172012 22 298 3.2 12.9 0.00 0.00 0.00 42 1011.9
20260505171529 22 252 3.2 16.1 0.00 0.00 0.00 44 1011.9
20260505171014 22 261 3.2 16.1 0.00 0.00 0.00 43 1011.9
20260505170511 22 271 3.2 17.7 0.00 0.00 0.00 45 1011.9
20260505170031 22 271 4.8 17.7 0.00 0.00 0.00 46 1012.0
20260505165512 21 271 9.7 17.7 0.00 0.00 0.00 45 1012.0
20260505165011 21 280 9.7 16.1 0.00 0.00 0.00 46 1011.8
20260505164550 21 0 4.8 12.9 0.00 0.00 0.00 47 1011.9
20260505164011 21 245 1.6 17.7 0.00 0.00 0.00 47 1012.0
20260505163508 21 290 8.0 17.7 0.00 0.00 0.00 47 1012.0
20260505163029 21 0 1.6 11.3 0.00 0.00 0.00 51 1012.0
20260505162510 20 0 3.2 14.5 0.00 0.00 0.00 50 1012.0
20260505162008 20 286 4.8 14.5 0.00 0.00 0.00 51 1012.0
20260505161528 20 360 1.6 14.5 0.00 0.00 0.00 52 1012.1
20260505161011 20 360 3.2 16.1 0.00 0.00 0.00 52 1012.2
20260505160512 20 360 3.2 16.1 0.00 0.00 0.00 53 1012.1
20260505153028 19 360 6.4 16.1 0.00 0.00 0.00 54 1012.2
20260505152513 20 360 6.4 16.1 0.00 0.00 0.00 54 1012.3
20260505152011 20 360 1.6 14.5 0.00 0.00 0.00 55 1012.2
20260505151529 20 360 4.8 16.1 0.00 0.00 0.00 55 1012.0
20260505151010 20 360 6.4 16.1 0.00 0.00 0.00 54 1011.9
20260505150515 20 277 1.6 16.1 0.00 0.00 0.00 55 1011.8
20260505140510 18 0 0.0 8.0 0.00 0.00 0.00 57 1011.9
20260505125008 18 0 0.0 0.0 0.00 0.00 0.00 56 1011.0
20260505124536 18 0 0.0 0.0 0.00 0.00 0.00 55 1011.0
20260505124011 18 0 0.0 0.0 0.00 0.00 0.00 56 1010.9
20260505123508 18 0 0.0 3.2 0.00 0.00 0.00 55 1010.9
20260505123028 18 0 0.0 4.8 0.00 0.00 0.00 56 1010.8
20260505122512 18 0 0.0 4.8 0.00 0.00 0.00 56 1010.8
20260505122013 18 0 1.6 6.4 0.00 0.00 0.00 56 1010.8
20260505121534 18 0 1.6 6.4 0.00 0.00 0.00 55 1010.9
20260505121010 18 360 0.0 4.8 0.00 0.00 0.00 55 1011.0
20260505120516 18 0 0.0 3.2 0.00 0.00 0.00 55 1010.7
20260505120034 18 0 0.0 4.8 0.00 0.00 0.00 54 1010.8
20260505115509 18 0 0.0 4.8 0.00 0.00 0.00 54 1010.9
20260505115017 18 0 0.0 4.8 0.00 0.00 0.00 54 1010.8
20260505114531 18 360 0.0 4.8 0.00 0.00 0.00 54 1010.8
20260505114011 18 360 0.0 6.4 0.00 0.00 0.00 54 1010.8
20260505113509 18 360 0.0 6.4 0.00 0.00 0.00 53 1010.8
20260505113033 18 360 0.0 6.4 0.00 0.00 0.00 53 1010.7
20260505112508 18 360 0.0 6.4 0.00 0.00 0.00 52 1010.8
20260505112010 18 360 0.0 6.4 0.00 0.00 0.00 52 1010.8
20260505111526 18 360 1.6 6.4 0.00 0.00 0.00 52 1010.8
20260505111013 19 0 0.0 6.4 0.00 0.00 0.00 52 1010.6
20260505110511 19 360 0.0 12.9 0.00 0.00 0.00 51 1010.5
20260505102008 20 0 1.6 9.7 0.00 0.00 0.00 49 1011.1
20260505101528 20 0 1.6 16.1 0.00 0.00 0.00 48 1011.1
20260505101012 20 360 1.6 19.3 0.00 0.00 0.00 48 1011.0
20260505100509 20 360 4.8 19.3 0.00 0.00 0.00 47 1010.9
20260505100028 20 360 4.8 19.3 0.00 0.00 0.00 47 1011.0
20260505095510 20 360 6.4 17.7 0.00 0.00 0.00 46 1011.1
20260505095010 20 360 3.2 17.7 0.00 0.00 0.00 45 1011.2
20260505094533 20 360 4.8 17.7 0.00 0.00 0.00 45 1011.3
20260505094009 20 360 3.2 9.7 0.00 0.00 0.00 45 1011.4
20260505093507 20 360 1.6 9.7 0.00 0.00 0.00 45 1011.4
20260505093030 20 360 3.2 9.7 0.00 0.00 0.00 45 1011.4
20260505092512 20 360 0.0 4.8 0.00 0.00 0.00 45 1011.4
20260505092013 20 0 0.0 0.0 0.00 0.00 0.00 45 1011.4
20260505091528 20 0 0.0 1.6 0.00 0.00 0.00 44 1011.5
20260505091013 20 0 0.0 3.2 0.00 0.00 0.00 43 1011.6
20260505090508 20 0 0.0 3.2 0.00 0.00 0.00 44 1011.5
20260505090030 20 0 0.0 8.0 0.00 0.00 0.00 42 1011.5
20260505085530 20 360 1.6 8.0 0.00 0.00 0.00 42 1011.5
20260505085010 20 0 0.0 3.2 0.00 0.00 0.00 41 1011.4
20260505084542 21 0 0.0 8.0 0.00 0.00 0.00 41 1011.5
20260505084011 21 0 0.0 8.0 0.00 0.00 0.00 41 1011.7
20260505083513 21 0 0.0 8.0 0.00 0.00 0.00 40 1011.7
20260505083028 21 0 0.0 6.4 0.00 0.00 0.00 40 1011.8
20260505082508 21 360 1.6 8.0 0.00 0.00 0.00 40 1011.8
20260505082007 21 360 1.6 8.0 0.00 0.00 0.00 40 1012.0
20260505081526 21 360 0.0 6.4 0.00 0.00 0.00 40 1011.9
20260505081010 21 0 0.0 4.8 0.00 0.00 0.00 40 1011.9
20260505080511 21 0 0.0 4.8 0.00 0.00 0.00 40 1011.9
20260505080026 21 360 0.0 4.8 0.00 0.00 0.00 39 1011.7
20260505075509 21 0 0.0 3.2 0.00 0.00 0.00 39 1011.8
20260505075010 21 0 0.0 3.2 0.00 0.00 0.00 39 1011.9
20260505074531 21 0 0.0 3.2 0.00 0.00 0.00 38 1012.1
20260505074009 21 0 0.0 3.2 0.00 0.00 0.00 38 1012.0
20260505073509 21 0 0.0 3.2 0.00 0.00 0.00 38 1011.9
20260505073030 21 360 0.0 4.8 0.00 0.00 0.00 38 1011.8
20260505072510 21 360 0.0 6.4 0.00 0.00 0.00 37 1011.6
20260505072012 21 0 0.0 6.4 0.00 0.00 0.00 36 1011.7
20260505071529 21 360 0.0 6.4 0.00 0.00 0.00 36 1011.8
20260505071011 21 360 1.6 6.4 0.00 0.00 0.00 37 1011.9
20260505070514 21 360 0.0 3.2 0.00 0.00 0.00 37 1011.9
20260505070036 21 0 0.0 4.8 0.00 0.00 0.00 37 1011.8
20260505065516 21 360 0.0 4.8 0.00 0.00 0.00 38 1011.7
20260505065006 21 360 1.6 6.4 0.00 0.00 0.00 38 1011.9
20260505064529 21 0 0.0 9.7 0.00 0.00 0.00 39 1011.8
20260505064014 21 360 1.6 9.7 0.00 0.00 0.00 40 1011.7
20260505063509 21 360 0.0 8.0 0.00 0.00 0.00 42 1011.6
20260505063032 21 0 0.0 0.0 0.00 0.00 0.00 43 1011.7
20260505062512 21 0 0.0 0.0 0.00 0.00 0.00 42 1011.6
20260505062011 21 0 0.0 0.0 0.00 0.00 0.00 42 1011.4
20260505061527 21 0 0.0 0.0 0.00 0.00 0.00 42 1011.4
20260505061011 21 0 0.0 0.0 0.00 0.00 0.00 42 1011.4
20260505060511 21 0 0.0 0.0 0.00 0.00 0.00 42 1011.4
20260505060034 21 0 0.0 0.0 0.00 0.00 0.00 42 1011.4